Regional Weather Roundup
Issued by NWS

Home | Current Version | Previous Version | Graphics & Text | Print | Product List | Glossary On
Versions: 1 2 3 4 5 6 7 8 9 10 11 12 13 14 15 16 17 18 19 20 21 22 23 24 25 26 27
000
ASUS45 KBOI 282010
RWRID

IDAHO REGIONAL WEATHER ROUNDUP
NATIONAL WEATHER SERVICE BOISE ID
200 PM MDT THU JUL 28 2016

NOTE: "FAIR" INDICATES FEW OR NO CLOUDS BELOW 12000 FEET
WITH NO SIGNIFICANT WEATHER AND/OR OBSTRUCTIONS TO VISIBILITY

IDZ012-014-282100-
SOUTHWEST IDAHO


CITY           SKY/WX    TMP DP  RH WIND       PRES   REMARKS
BOISE          SUNNY     95  40  14 NW10      30.04F HX  91
CALDWELL       SUNNY     92  51  24 W7        30.03F
$$

IDZ016-017-282100-
SOUTHCENTRAL IDAHO


CITY           SKY/WX    TMP DP  RH WIND       PRES   REMARKS
BURLEY         SUNNY     88  47  24 W8        30.11F
JEROME         SUNNY     87  51  28 W6        30.13F
TWIN FALLS     SUNNY     89  51  27 NW8       30.13F
$$

IDZ019>023-282100-
SOUTHEAST IDAHO


CITY           SKY/WX    TMP DP  RH WIND       PRES   REMARKS
IDAHO FALLS    SUNNY     88  38  17 VRB3      30.15F
POCATELLO      SUNNY     91  37  15 NW7       30.14F
REXBURG        SUNNY     87  39  18 SW9       30.15F
$$

IDZ006-010-011-018-031-032-282100-
CENTRAL IDAHO MOUNTAINS


CITY           SKY/WX    TMP DP  RH WIND       PRES   REMARKS
MCCALL         SUNNY     85  30  13 N6        30.21S
HAILEY         MOSUNNY   88  46  23 SE12        N/A
STANLEY          N/A     83  27  13 NE6       30.29F
SALMON         SUNNY     86  46  25 N7        30.10F
CHALLIS        SUNNY     88  31  13 VRB6      30.15F
$$

IDZ002-004-006-007-026-282100-
NORTHERN IDAHO


CITY           SKY/WX    TMP DP  RH WIND       PRES   REMARKS
LEWISTON       SUNNY     96  50  20 NW6       30.02F HX  93
LOWELL           N/A     94  55  26 S5        30.01F HX  92
COEUR D`ALENE  SUNNY     88  55  33 N6        30.06F
MULLAN PASS    SUNNY     73  44  35 VRB5      30.31S
$$




USA.gov is the U.S. government's official web portal to all federal, state and local government web resources and services.